COSMOS 1275 DEB, 42175

Orbit data source: Space-Track

COSMOS 1275 DEB, 42175 is space debris in LEO originally from a launch on Thu, 04 Jun 1981 UTC launched from the Plesetsk Missile And Space Complex (PKMTR). Debris objects in space refer to the collection of defunct objects orbiting the Earth. Examples of debris include non-operational satellites, rocket bodies, and fragments generated from explosions, collisions, or faulty payload assembly.

Loading next visibility...
Identifier
42175, 1981-053SP
Orbit
LEO
Country
Flag of CISCIS
Related business
Manufacturer
Unknown
Mission
Spacecraft
Bus & Motor
Unknown
Mass
Unknown
Launch date (UTC)
1981-06-04 (45 years ago)
Launch vehicle
Unknown
Launch site
Plesetsk Missile And Space Complex (PKMTR)
Object type
Payload
Rocket body
Debris
Shape & HBR
Unknown shape, 0.1 m
Radar Cross Section
Small (<0.1 m²)

Expand to show TLE details & history
Last TLE update: 4 days ago

TLE from 4 days ago
0 COSMOS 1275 DEB
1 42175U 81053SP  26033.41818466  .00000133  00000-0  17820-3 0  9996
2 42175  83.0288 279.4524 0138441 224.4938 260.8614 13.49710306601127
Epoch: 2026-02-02T10:02Z
TLE epoch observation values (Epoch: 2026-02-02T10:02:11.154Z)
Latitude
55.6742°
Longitude
166.02971°
Altitude
1,100.344 km
Speed
7.299 km/s
True Right ascension
05h 56m 45s
True Declination
55° 31' 16"
Sunlit
Object was in full shadow at epoch
Visualization orbit readout
Latitude
Unknown
Longitude
Unknown
Altitude
Unknown
Speed
Unknown
Apparent Right ascension
Unknown
Apparent Declination
Unknown
Sunlit
N/A
Visualization observer readout
Local Sidereal Time
18:55:59
Azimuth
Unknown
Elevation
Unknown
Doppler factor
Unknown
Orbital elements
Apogee altitude
1,173.624 km
Perigee altitude
967.385 km
Semi-major axis
7,448.641 km
Eccentricity
0.01384
Inclination
83.0288°
RAAN
279.4524°
Arg. of periapsis
224.4938°
True anomaly
259.29961°
Mean anomaly
260.8614°
Eccentric anomaly
260.08005°
Mean motion
3.3762 °/min
Orbital period
106.63 mins
BSTAR
0.0001782
Loading maneuver chart data...
Computing Atmospheric mass density...
Loading historical data...
Loading historical data...
Loading historical data...
Loading historical data...
Loading historical data...
Loading historical data...
Loading historical data...

Documentation

Showing up to 5 results
|